TJS-11

Last updated on Sat Jun 14 2025 00:02:49 GMT+0000 (Coordinated Universal Time)

1 59020U 24037A 25164.75238780 -.00000352 00000+0 00000+0 0 9999 2 59020 4.7302 323.3089 0003952 150.8045 179.3613 1.00269574 4912
UTC large
Height (km)
Speed (km/s)
/
Latitude / Longitude
Inclination (degrees)
Orbital Period (minutes)
Azimuth
Elevation
Range (km)
Doppler Factor

Next 0 passes for location: London (51.5072 / 0.1276)

Sorry there are no passes over London.